QPF
0.19 0.20 0.21 0.23 0.26 0.29 0.31 0.33 0.33 0.29 0.24 0.23 0.23 0.24 0.24 0.24 0.25 0.24 0.23 0.21 0.17 0.13 0.10 0.13 0.15 0.15 0.16 0.16 0.20 0.21 0.19 0.16 0.14 0.14 0.12 0.09 0.09 0.07 0.05 0.05 0.09 0.11 0.11 0.08 0.06 0.04 0.03 0.02 0.02 0.02 0.02 0.02 0.01 0.01 0.01 0.01 0.00 0.00 0.00 0.00 0.00 0.00 0.00 0.00 0.00 0.00 0.00 0.00 0.00
0.18 0.18 0.18 0.20 0.21 0.23 0.25 0.26 0.24 0.20 0.18 0.18 0.18 0.20 0.22 0.23 0.24 0.22 0.20 0.17 0.13 0.10 0.09 0.12 0.12 0.12 0.12 0.12 0.13 0.14 0.12 0.09 0.10 0.12 0.13 0.11 0.11 0.09 0.07 0.05 0.06 0.07 0.07 0.04 0.03 0.02 0.02 0.02 0.02 0.02 0.01 0.01 0.01 0.01 0.01 0.01 0.00 0.00 0.00 0.00 0.00 0.00 0.00 0.00 0.00 0.00 0.00 0.00 0.00
0.17 0.17 0.17 0.17 0.16 0.17 0.18 0.20 0.16 0.13 0.11 0.12 0.13 0.15 0.17 0.18 0.17 0.15 0.13 0.10 0.07 0.06 0.07 0.12 0.11 0.09 0.07 0.07 0.09 0.07 0.05 0.05 0.08 0.12 0.14 0.14 0.14 0.12 0.09 0.06 0.06 0.05 0.04 0.02 0.02 0.02 0.02 0.02 0.02 0.01 0.01 0.01 0.01 0.01 0.01 0.01 0.00 0.00 0.00 0.00 0.00 0.00 0.00 0.00 0.00 0.00 0.00 0.00 0.00
0.15 0.16 0.17 0.17 0.15 0.14 0.13 0.12 0.09 0.08 0.07 0.07 0.08 0.09 0.10 0.10 0.09 0.08 0.06 0.05 0.05 0.06 0.07 0.10 0.10 0.08 0.06 0.06 0.05 0.03 0.02 0.04 0.08 0.12 0.15 0.17 0.17 0.14 0.11 0.08 0.07 0.06 0.05 0.02 0.01 0.01 0.02 0.02 0.02 0.02 0.02 0.02 0.01 0.01 0.01 0.01 0.00 0.00 0.00 0.00 0.00 0.00 0.00 0.00 0.00 0.00 0.00 0.00 0.00
0.12 0.13 0.15 0.15 0.14 0.13 0.11 0.08 0.06 0.04 0.03 0.03 0.04 0.04 0.05 0.05 0.05 0.04 0.04 0.04 0.05 0.06 0.06 0.08 0.10 0.09 0.08 0.07 0.04 0.02 0.02 0.04 0.07 0.11 0.15 0.19 0.18 0.16 0.12 0.09 0.08 0.07 0.05 0.02 0.01 0.01 0.02 0.02 0.03 0.03 0.03 0.02 0.01 0.01 0.01 0.01 0.00 0.00 0.00 0.00 0.00 0.00 0.00 0.00 0.00 0.00 0.00 0.00 0.00
0.09 0.10 0.11 0.13 0.12 0.10 0.09 0.07 0.04 0.02 0.01 0.01 0.02 0.02 0.03 0.03 0.03 0.03 0.04 0.05 0.05 0.06 0.08 0.12 0.12 0.13 0.13 0.10 0.06 0.03 0.02 0.04 0.06 0.10 0.14 0.19 0.19 0.16 0.13 0.10 0.08 0.07 0.05 0.04 0.02 0.02 0.02 0.02 0.02 0.03 0.03 0.02 0.01 0.01 0.01 0.01 0.00 0.00 0.00 0.00 0.00 0.00 0.00 0.00 0.00 0.00 0.00 0.00 0.00
0.08 0.08 0.08 0.09 0.08 0.07 0.06 0.04 0.03 0.01 0.01 0.01 0.01 0.02 0.02 0.02 0.03 0.03 0.03 0.03 0.05 0.08 0.11 0.15 0.19 0.18 0.15 0.11 0.07 0.03 0.02 0.04 0.06 0.09 0.13 0.17 0.19 0.16 0.11 0.09 0.08 0.07 0.06 0.05 0.03 0.02 0.02 0.02 0.02 0.02 0.02 0.01 0.01 0.01 0.00 0.00 0.00 0.00 0.00 0.00 0.00 0.00 0.00 0.00 0.00 0.00 0.00 0.00 0.00
0.08 0.08 0.06 0.05 0.04 0.04 0.03 0.02 0.01 0.01 0.01 0.01 0.01 0.02 0.02 0.02 0.02 0.03 0.03 0.03 0.07 0.09 0.12 0.15 0.20 0.21 0.18 0.13 0.08 0.04 0.03 0.05 0.06 0.09 0.11 0.14 0.16 0.13 0.09 0.08 0.08 0.07 0.06 0.06 0.04 0.03 0.02 0.01 0.00 0.00 0.00 0.00 0.00 0.00 0.00 0.00 0.00 0.00 0.00 0.00 0.00 0.00 0.00 0.00 0.00 0.00 0.00 0.00 0.00
0.08 0.07 0.06 0.04 0.04 0.04 0.03 0.02 0.01 0.01 0.01 0.01 0.02 0.02 0.02 0.02 0.02 0.03 0.04 0.06 0.06 0.09 0.12 0.15 0.21 0.24 0.23 0.17 0.10 0.05 0.03 0.04 0.07 0.09 0.10 0.12 0.13 0.10 0.07 0.07 0.07 0.06 0.05 0.05 0.03 0.01 0.00 0.00 0.00 0.00 0.00 0.00 0.00 0.00 0.00 0.00 0.00 0.00 0.00 0.00 0.00 0.00 0.00 0.00 0.00 0.00 0.00 0.00 0.00
0.05 0.05 0.04 0.03 0.04 0.04 0.04 0.03 0.03 0.02 0.01 0.02 0.02 0.02 0.02 0.02 0.02 0.02 0.03 0.04 0.06 0.09 0.13 0.16 0.21 0.25 0.25 0.21 0.13 0.08 0.05 0.05 0.08 0.10 0.10 0.11 0.10 0.07 0.05 0.05 0.05 0.04 0.04 0.03 0.01 0.00 0.00 0.00 0.00 0.00 0.00 0.00 0.00 0.00 0.00 0.00 0.00 0.00 0.00 0.00 0.00 0.00 0.00 0.00 0.00 0.00 0.00 0.00 0.00
0.03 0.02 0.02 0.02 0.03 0.04 0.05 0.05 0.05 0.04 0.02 0.02 0.02 0.02 0.02 0.02 0.02 0.03 0.04 0.05 0.07 0.09 0.11 0.14 0.19 0.21 0.20 0.18 0.13 0.09 0.07 0.06 0.11 0.12 0.12 0.12 0.09 0.05 0.02 0.02 0.02 0.01 0.01 0.00 0.00 0.00 0.00 0.00 0.00 0.00 0.00 0.00 0.00 0.00 0.00 0.00 0.00 0.00 0.00 0.00 0.00 0.00 0.00 0.00 0.00 0.00 0.00 0.00 0.00
0.02 0.02 0.01 0.01 0.02 0.03 0.04 0.05 0.05 0.04 0.02 0.01 0.01 0.01 0.01 0.01 0.02 0.03 0.04 0.06 0.08 0.09 0.10 0.12 0.17 0.18 0.16 0.14 0.11 0.09 0.09 0.10 0.13 0.14 0.14 0.15 0.09 0.04 0.00 0.00 0.00 0.00 0.00 0.00 0.00 0.00 0.00 0.00 0.00 0.00 0.00 0.00 0.00 0.00 0.00 0.00 0.00 0.00 0.00 0.00 0.00 0.00 0.00 0.00 0.00 0.00 0.00 0.00 0.00
0.02 0.02 0.02 0.01 0.02 0.02 0.04 0.04 0.04 0.03 0.02 0.01 0.01 0.01 0.01 0.02 0.02 0.03 0.05 0.07 0.08 0.09 0.10 0.11 0.15 0.16 0.14 0.11 0.09 0.09 0.11 0.13 0.15 0.15 0.14 0.14 0.08 0.03 0.00 0.00 0.00 0.00 0.00 0.00 0.00 0.00 0.00 0.00 0.00 0.00 0.00 0.00 0.00 0.00 0.00 0.00 0.00 0.00 0.00 0.00 0.00 0.00 0.00 0.00 0.00 0.00 0.00 0.00 0.00
0.03 0.03 0.02 0.02 0.02 0.02 0.03 0.03 0.03 0.02 0.01 0.01 0.01 0.01 0.02 0.03 0.03 0.04 0.05 0.07 0.08 0.10 0.10 0.11 0.12 0.14 0.13 0.10 0.09 0.09 0.10 0.13 0.15 0.14 0.11 0.11 0.05 0.02 0.00 0.00 0.00 0.00 0.00 0.00 0.00 0.00 0.00 0.00 0.00 0.00 0.00 0.00 0.00 0.00 0.00 0.00 0.00 0.00 0.00 0.00 0.00 0.00 0.00 0.00 0.00 0.00 0.00 0.00 0.00
0.04 0.04 0.03 0.02 0.02 0.02 0.02 0.02 0.02 0.02 0.01 0.01 0.01 0.02 0.02 0.03 0.04 0.04 0.05 0.07 0.08 0.09 0.10 0.12 0.13 0.14 0.13 0.11 0.10 0.10 0.11 0.13 0.13 0.11 0.08 0.06 0.02 0.01 0.00 0.00 0.00 0.00 0.00 0.00 0.00 0.00 0.00 0.00 0.00 0.00 0.00 0.00 0.00 0.00 0.00 0.00 0.00 0.00 0.00 0.00 0.00 0.00 0.00 0.00 0.00 0.00 0.00 0.00 0.00
0.04 0.04 0.04 0.03 0.02 0.02 0.02 0.01 0.01 0.01 0.02 0.01 0.01 0.02 0.02 0.04 0.04 0.04 0.05 0.06 0.07 0.08 0.10 0.12 0.13 0.14 0.13 0.11 0.11 0.11 0.12 0.13 0.11 0.09 0.06 0.03 0.01 0.00 0.00 0.00 0.00 0.00 0.00 0.00 0.00 0.00 0.00 0.00 0.00 0.00 0.00 0.00 0.00 0.00 0.00 0.00 0.00 0.00 0.00 0.00 0.00 0.00 0.00 0.00 0.00 0.00 0.00 0.00 0.00
0.04 0.04 0.04 0.03 0.03 0.02 0.02 0.02 0.01 0.01 0.01 0.02 0.02 0.02 0.02 0.03 0.03 0.04 0.04 0.05 0.06 0.07 0.09 0.11 0.12 0.13 0.13 0.10 0.10 0.11 0.12 0.12 0.09 0.07 0.04 0.01 0.00 0.00 0.00 0.00 0.00 0.00 0.00 0.00 0.00 0.00 0.00 0.00 0.00 0.00 0.00 0.00 0.00 0.00 0.00 0.00 0.00 0.00 0.00 0.00 0.00 0.00 0.00 0.00 0.00 0.00 0.00 0.00 0.00
0.03 0.03 0.03 0.03 0.03 0.02 0.02 0.02 0.02 0.01 0.01 0.01 0.02 0.02 0.02 0.02 0.03 0.03 0.04 0.05 0.05 0.06 0.08 0.10 0.11 0.12 0.11 0.08 0.08 0.09 0.10 0.09 0.07 0.04 0.02 0.00 0.00 0.00 0.00 0.00 0.00 0.00 0.00 0.00 0.00 0.00 0.00 0.00 0.00 0.00 0.00 0.00 0.00 0.00 0.00 0.00 0.00 0.00 0.00 0.00 0.00 0.00 0.00 0.00 0.00 0.00 0.00 0.00 0.00
0.02 0.03 0.03 0.02 0.02 0.02 0.02 0.02 0.02 0.01 0.01 0.01 0.01 0.02 0.02 0.02 0.02 0.03 0.04 0.05 0.06 0.06 0.07 0.09 0.10 0.11 0.09 0.05 0.05 0.06 0.07 0.06 0.04 0.02 0.01 0.00 0.00 0.00 0.00 0.00 0.00 0.00 0.00 0.00 0.00 0.00 0.00 0.00 0.00 0.00 0.00 0.00 0.00 0.00 0.00 0.00 0.00 0.00 0.00 0.00 0.00 0.00 0.00 0.00 0.00 0.00 0.00 0.00 0.00
0.02 0.02 0.02 0.02 0.02 0.02 0.02 0.02 0.02 0.02 0.02 0.01 0.01 0.02 0.02 0.02 0.02 0.03 0.04 0.05 0.06 0.06 0.07 0.08 0.09 0.09 0.07 0.03 0.03 0.04 0.04 0.03 0.02 0.01 0.00 0.00 0.00 0.00 0.00 0.00 0.00 0.00 0.00 0.00 0.00 0.00 0.00 0.00 0.00 0.00 0.00 0.00 0.00 0.00 0.00 0.00 0.00 0.00 0.00 0.00 0.00 0.00 0.00 0.01 0.01 0.01 0.01 0.01 0.01
0.02 0.02 0.02 0.02 0.02 0.02 0.02 0.02 0.02 0.03 0.03 0.02 0.02 0.02 0.02 0.02 0.02 0.03 0.04 0.05 0.06 0.07 0.08 0.09 0.09 0.08 0.05 0.02 0.01 0.02 0.02 0.02 0.01 0.00 0.00 0.00 0.00 0.00 0.00 0.00 0.00 0.00 0.00 0.00 0.00 0.00 0.00 0.00 0.00 0.00 0.00 0.00 0.00 0.00 0.00 0.00 0.00 0.00 0.00 0.00 0.00 0.00 0.01 0.02 0.02 0.02 0.01 0.01 0.01
0.02 0.02 0.02 0.02 0.02 0.02 0.03 0.04 0.05 0.05 0.05 0.04 0.04 0.03 0.03 0.03 0.02 0.03 0.04 0.06 0.06 0.08 0.09 0.11 0.10 0.08 0.04 0.01 0.01 0.01 0.01 0.00 0.00 0.00 0.00 0.00 0.00 0.00 0.00 0.00 0.00 0.00 0.00 0.00 0.00 0.00 0.00 0.00 0.00 0.00 0.00 0.00 0.00 0.00 0.00 0.00 0.00 0.00 0.00 0.00 0.01 0.01 0.01 0.02 0.01 0.01 0.01 0.00 0.00
0.02 0.02 0.02 0.03 0.03 0.04 0.05 0.06 0.08 0.09 0.08 0.07 0.05 0.05 0.05 0.04 0.03 0.03 0.04 0.07 0.08 0.09 0.09 0.10 0.09 0.06 0.02 0.00 0.00 0.00 0.00 0.00 0.00 0.00 0.00 0.00 0.00 0.00 0.00 0.00 0.00 0.00 0.00 0.00 0.00 0.00 0.00 0.00 0.00 0.00 0.00 0.00 0.00 0.00 0.00 0.00 0.00 0.00 0.01 0.02 0.02 0.02 0.01 0.01 0.00 0.00 0.00 0.00 0.00
0.02 0.03 0.03 0.03 0.04 0.05 0.07 0.08 0.10 0.11 0.10 0.09 0.07 0.07 0.06 0.05 0.03 0.03 0.05 0.07 0.07 0.07 0.06 0.06 0.04 0.02 0.01 0.00 0.00 0.00 0.00 0.00 0.00 0.00 0.00 0.00 0.00 0.00 0.00 0.00 0.00 0.00 0.00 0.00 0.00 0.00 0.00 0.00 0.00 0.00 0.00 0.00 0.00 0.00 0.00 0.01 0.01 0.02 0.02 0.02 0.02 0.01 0.00 0.00 0.00 0.00 0.00 0.00 0.00
0.02 0.02 0.03 0.03 0.05 0.06 0.07 0.09 0.12 0.12 0.11 0.09 0.07 0.07 0.06 0.05 0.03 0.03 0.04 0.05 0.04 0.03 0.03 0.02 0.01 0.00 0.00 0.00 0.00 0.00 0.00 0.00 0.00 0.00 0.00 0.00 0.00 0.00 0.00 0.00 0.00 0.00 0.00 0.01 0.01 0.01 0.01 0.01 0.00 0.01 0.01 0.01 0.01 0.02 0.02 0.02 0.02 0.01 0.01 0.01 0.01 0.00 0.00 0.00 0.00 0.00 0.00 0.00 0.00
0.02 0.02 0.03 0.04 0.05 0.06 0.07 0.09 0.11 0.11 0.10 0.08 0.07 0.06 0.05 0.04 0.02 0.02 0.02 0.02 0.01 0.01 0.01 0.00 0.00 0.00 0.00 0.00 0.00 0.00 0.00 0.00 0.00 0.00 0.00 0.00 0.00 0.00 0.00 0.00 0.00 0.01 0.01 0.01 0.01 0.01 0.01 0.01 0.01 0.01 0.00 0.00 0.00 0.01 0.01 0.00 0.00 0.00 0.00 0.00 0.00 0.00 0.00 0.00 0.00 0.00 0.00 0.00 0.00
0.02 0.02 0.03 0.03 0.04 0.05 0.06 0.08 0.09 0.10 0.09 0.07 0.06 0.04 0.03 0.02 0.01 0.01 0.01 0.00 0.00 0.00 0.00 0.00 0.00 0.00 0.00 0.00 0.00 0.00 0.00 0.00 0.00 0.00 0.00 0.00 0.00 0.00 0.00 0.00 0.00 0.00 0.01 0.00 0.00 0.00 0.00 0.00 0.00 0.00 0.00 0.00 0.00 0.00 0.00 0.00 0.00 0.00 0.00 0.00 0.00 0.00 0.00 0.00 0.00 0.00 0.00 0.00 0.00
0.02 0.02 0.02 0.02 0.02 0.03 0.04 0.05 0.07 0.07 0.07 0.05 0.03 0.02 0.01 0.00 0.00 0.00 0.00 0.00 0.00 0.00 0.00 0.00 0.00 0.00 0.00 0.00 0.00 0.00 0.00 0.00 0.00 0.00 0.00 0.00 0.00 0.00 0.00 0.01 0.01 0.00 0.00 0.00 0.00 0.00 0.00 0.00 0.00 0.00 0.00 0.00 0.00 0.00 0.00 0.00 0.00 0.00 0.00 0.00 0.00 0.00 0.00 0.00 0.00 0.00 0.00 0.00 0.00
0.01 0.01 0.01 0.01 0.02 0.02 0.03 0.04 0.05 0.05 0.04 0.02 0.01 0.01 0.00 0.00 0.00 0.00 0.00 0.00 0.00 0.00 0.00 0.00 0.00 0.00 0.00 0.00 0.00 0.00 0.00 0.00 0.00 0.00 0.00 0.00 0.00 0.00 0.00 0.00 0.00 0.00 0.00 0.00 0.00 0.00 0.00 0.00 0.00 0.00 0.00 0.00 0.00 0.00 0.00 0.00 0.00 0.00 0.00 0.00 0.00 0.00 0.00 0.00 0.00 0.00 0.00 0.00 0.00
0.01 0.01 0.01 0.01 0.01 0.02 0.02 0.03 0.04 0.04 0.03 0.01 0.01 0.00 0.00 0.00 0.00 0.00 0.00 0.00 0.00 0.00 0.00 0.00 0.00 0.00 0.00 0.00 0.00 0.00 0.00 0.00 0.00 0.00 0.00 0.00 0.00 0.00 0.00 0.00 0.00 0.00 0.00 0.00 0.00 0.00 0.00 0.00 0.00 0.00 0.00 0.00 0.00 0.00 0.00 0.00 0.00 0.00 0.00 0.00 0.00 0.00 0.00 0.00 0.00 0.00 0.00 0.00 0.00
0.00 0.00 0.01 0.01 0.01 0.01 0.02 0.02 0.03 0.02 0.02 0.01 0.00 0.00 0.00 0.00 0.00 0.00 0.00 0.00 0.00 0.00 0.00 0.00 0.00 0.00 0.00 0.00 0.00 0.00 0.00 0.00 0.00 0.00 0.00 0.00 0.00 0.00 0.00 0.00 0.00 0.00 0.00 0.00 0.00 0.00 0.00 0.00 0.00 0.00 0.00 0.00 0.00 0.00 0.00 0.00 0.00 0.00 0.00 0.00 0.00 0.00 0.00 0.00 0.00 0.00 0.00 0.00 0.00
0.00 0.00 0.00 0.00 0.01 0.01 0.01 0.01 0.01 0.01 0.01 0.00 0.00 0.00 0.00 0.00 0.00 0.00 0.00 0.00 0.00 0.00 0.00 0.00 0.00 0.00 0.00 0.00 0.00 0.00 0.00 0.00 0.00 0.00 0.00 0.00 0.00 0.00 0.00 0.00 0.00 0.00 0.00 0.00 0.00 0.00 0.00 0.00 0.00 0.00 0.00 0.00 0.00 0.00 0.00 0.00 0.00 0.00 0.00 0.00 0.00 0.00 0.00 0.00 0.01 0.00 0.00 0.01 0.02
0.00 0.00 0.00 0.00 0.00 0.00 0.00 0.00 0.00 0.00 0.00 0.00 0.00 0.00 0.00 0.00 0.00 0.00 0.00 0.00 0.00 0.00 0.00 0.00 0.00 0.00 0.00 0.00 0.00 0.00 0.00 0.00 0.00 0.00 0.00 0.00 0.00 0.00 0.00 0.00 0.00 0.00 0.00 0.00 0.00 0.00 0.00 0.00 0.00 0.00 0.00 0.00 0.00 0.00 0.00 0.00 0.00 0.00 0.00 0.00 0.01 0.00 0.00 0.00 0.01 0.01 0.01 0.01 0.01
0.00 0.00 0.00 0.00 0.00 0.00 0.00 0.00 0.00 0.00 0.00 0.00 0.00 0.00 0.00 0.00 0.00 0.00 0.00 0.00 0.00 0.00 0.00 0.00 0.00 0.00 0.00 0.00 0.00 0.00 0.00 0.00 0.00 0.00 0.00 0.00 0.00 0.00 0.00 0.00 0.00 0.00 0.00 0.00 0.00 0.00 0.00 0.00 0.00 0.00 0.00 0.00 0.00 0.00 0.00 0.00 0.00 0.00 0.00 0.00 0.00 0.00 0.00 0.00 0.00 0.01 0.01 0.01 0.02
0.00 0.00 0.00 0.00 0.00 0.00 0.00 0.00 0.00 0.00 0.00 0.00 0.00 0.00 0.00 0.00 0.00 0.00 0.00 0.00 0.00 0.00 0.00 0.00 0.00 0.00 0.00 0.00 0.00 0.00 0.00 0.00 0.00 0.00 0.00 0.00 0.00 0.00 0.00 0.00 0.01 0.00 0.00 0.00 0.00 0.00 0.00 0.00 0.00 0.00 0.00 0.00 0.00 0.00 0.00 0.00 0.00 0.00 0.00 0.00 0.00 0.00 0.01 0.01 0.01 0.01 0.02 0.02 0.02
0.00 0.00 0.00 0.00 0.00 0.00 0.00 0.00 0.00 0.00 0.00 0.00 0.00 0.00 0.00 0.00 0.00 0.00 0.00 0.00 0.00 0.00 0.00 0.00 0.00 0.00 0.00 0.00 0.00 0.00 0.00 0.00 0.00 0.00 0.00 0.00 0.00 0.00 0.00 0.01 0.01 0.01 0.00 0.00 0.00 0.00 0.00 0.00 0.00 0.00 0.00 0.00 0.00 0.00 0.00 0.00 0.00 0.00 0.00 0.01 0.01 0.01 0.01 0.01 0.01 0.02 0.02 0.04 0.04
0.00 0.00 0.00 0.00 0.00 0.00 0.00 0.00 0.00 0.00 0.00 0.00 0.00 0.00 0.00 0.00 0.00 0.00 0.00 0.00 0.00 0.00 0.00 0.00 0.00 0.00 0.00 0.00 0.00 0.00 0.00 0.00 0.00 0.00 0.00 0.00 0.00 0.00 0.01 0.01 0.01 0.01 0.00 0.00 0.00 0.00 0.00 0.00 0.00 0.00 0.00 0.00 0.00 0.00 0.00 0.00 0.00 0.00 0.01 0.01 0.01 0.01 0.01 0.02 0.03 0.03 0.04 0.06 0.05
0.00 0.00 0.00 0.00 0.00 0.00 0.00 0.00 0.00 0.00 0.00 0.00 0.00 0.00 0.00 0.00 0.00 0.00 0.00 0.00 0.00 0.00 0.00 0.00 0.00 0.00 0.00 0.00 0.00 0.00 0.00 0.00 0.00 0.00 0.00 0.00 0.00 0.00 0.01 0.01 0.01 0.01 0.00 0.00 0.00 0.00 0.00 0.00 0.00 0.00 0.00 0.00 0.00 0.00 0.00 0.00 0.01 0.01 0.01 0.02 0.01 0.02 0.03 0.04 0.05 0.05 0.06 0.08 0.07
0.00 0.00 0.00 0.00 0.00 0.00 0.00 0.00 0.00 0.00 0.00 0.00 0.00 0.00 0.00 0.00 0.00 0.00 0.00 0.00 0.00 0.00 0.00 0.00 0.00 0.00 0.00 0.01 0.00 0.00 0.00 0.00 0.01 0.01 0.01 0.01 0.01 0.01 0.01 0.01 0.01 0.01 0.01 0.00 0.00 0.00 0.00 0.00 0.00 0.00 0.00 0.00 0.00 0.00 0.00 0.01 0.02 0.03 0.03 0.02 0.03 0.04 0.05 0.05 0.06 0.08 0.10 0.11 0.12
0.00 0.00 0.00 0.00 0.00 0.00 0.00 0.00 0.00 0.00 0.00 0.00 0.00 0.00 0.00 0.00 0.00 0.00 0.00 0.00 0.00 0.00 0.00 0.00 0.00 0.00 0.00 0.01 0.01 0.01 0.01 0.01 0.01 0.01 0.01 0.01 0.01 0.01 0.01 0.01 0.01 0.01 0.01 0.01 0.00 0.00 0.00 0.00 0.00 0.00 0.00 0.01 0.01 0.01 0.02 0.03 0.04 0.05 0.05 0.03 0.05 0.06 0.07 0.08 0.09 0.14 0.19 0.23 0.27
0.00 0.00 0.00 0.00 0.00 0.00 0.00 0.00 0.00 0.00 0.00 0.00 0.00 0.00 0.00 0.00 0.00 0.00 0.00 0.00 0.00 0.00 0.00 0.00 0.01 0.01 0.01 0.00 0.01 0.01 0.01 0.01 0.01 0.01 0.01 0.01 0.01 0.02 0.01 0.01 0.02 0.02 0.02 0.01 0.01 0.01 0.01 0.01 0.01 0.02 0.02 0.03 0.02 0.04 0.05 0.06 0.07 0.07 0.07 0.06 0.06 0.09 0.11 0.11 0.13 0.21 0.30 0.37 0.41
MSLP
1003.15 1003.35 1003.59 1003.83 1004.07 1004.27 1004.43 1004.59 1004.75 1004.83 1004.99 1005.15 1005.35 1005.59 1005.71 1005.83 1005.91 1006.03 1006.27 1006.59 1006.91 1007.23 1007.43 1007.59 1007.75 1008.03 1008.27 1008.51 1008.75 1008.95 1009.15 1009.31 1009.59 1009.87 1010.19 1010.43 1010.75 1011.03 1011.35 1011.71 1011.99 1012.27 1012.59 1012.83 1013.03 1013.15 1013.31 1013.59 1013.91 1014.15 1014.31 1014.47 1014.63 1014.83 1014.95 1015.03 1015.07 1014.99 1014.87 1014.87 1015.07 1015.27 1015.51 1015.75 1015.91 1016.15 1016.31 1016.47 1016.51
1003.11 1003.23 1003.43 1003.71 1003.95 1004.15 1004.31 1004.55 1004.75 1004.87 1005.03 1005.19 1005.39 1005.55 1005.59 1005.67 1005.75 1005.99 1006.35 1006.75 1006.99 1007.23 1007.43 1007.63 1007.83 1008.03 1008.27 1008.51 1008.75 1009.03 1009.19 1009.31 1009.59 1009.87 1010.15 1010.47 1010.83 1011.15 1011.43 1011.71 1011.95 1012.19 1012.47 1012.67 1012.75 1012.95 1013.27 1013.63 1013.87 1014.15 1014.35 1014.51 1014.75 1015.07 1015.31 1015.19 1014.87 1014.63 1014.59 1014.79 1015.03 1015.23 1015.43 1015.63 1015.79 1015.99 1016.15 1016.31 1016.43
1003.07 1003.19 1003.39 1003.59 1003.75 1003.91 1004.11 1004.43 1004.67 1004.87 1005.03 1005.23 1005.39 1005.51 1005.59 1005.71 1005.91 1006.23 1006.55 1006.79 1007.03 1007.27 1007.51 1007.71 1007.87 1008.03 1008.27 1008.55 1008.83 1009.03 1009.23 1009.35 1009.59 1009.87 1010.19 1010.59 1010.95 1011.31 1011.55 1011.75 1011.99 1012.19 1012.35 1012.43 1012.55 1012.87 1013.31 1013.59 1013.87 1014.11 1014.31 1014.59 1015.03 1015.35 1015.43 1015.19 1014.71 1014.43 1014.47 1014.75 1014.95 1015.15 1015.39 1015.59 1015.75 1015.91 1016.07 1016.23 1016.39
1003.11 1003.19 1003.35 1003.47 1003.51 1003.63 1003.87 1004.27 1004.55 1004.75 1004.99 1005.23 1005.43 1005.59 1005.75 1005.91 1006.15 1006.35 1006.59 1006.87 1007.11 1007.31 1007.51 1007.71 1007.87 1008.03 1008.31 1008.55 1008.83 1009.03 1009.23 1009.43 1009.59 1009.87 1010.27 1010.67 1011.03 1011.31 1011.59 1011.79 1011.99 1012.15 1012.23 1012.31 1012.59 1012.95 1013.31 1013.59 1013.87 1014.11 1014.47 1014.91 1015.35 1015.47 1015.27 1014.87 1014.47 1014.31 1014.39 1014.63 1014.83 1015.07 1015.31 1015.51 1015.67 1015.87 1016.03 1016.15 1016.31
1003.15 1003.27 1003.39 1003.43 1003.43 1003.59 1003.87 1004.23 1004.51 1004.75 1004.99 1005.23 1005.43 1005.67 1005.87 1006.03 1006.23 1006.47 1006.75 1006.99 1007.15 1007.35 1007.51 1007.67 1007.83 1008.03 1008.31 1008.55 1008.75 1009.03 1009.23 1009.43 1009.63 1009.95 1010.35 1010.75 1011.07 1011.31 1011.59 1011.87 1011.99 1012.07 1012.15 1012.39 1012.71 1013.03 1013.31 1013.63 1013.99 1014.39 1014.87 1015.31 1015.47 1015.31 1014.87 1014.47 1014.15 1014.15 1014.35 1014.59 1014.79 1015.03 1015.23 1015.43 1015.59 1015.75 1015.95 1016.11 1016.23
1003.11 1003.27 1003.43 1003.47 1003.59 1003.75 1004.03 1004.31 1004.55 1004.79 1005.03 1005.23 1005.43 1005.67 1005.87 1006.07 1006.27 1006.51 1006.75 1006.99 1007.15 1007.35 1007.55 1007.75 1007.87 1008.07 1008.31 1008.59 1008.75 1009.03 1009.23 1009.43 1009.71 1010.03 1010.43 1010.79 1011.07 1011.35 1011.67 1011.91 1012.03 1012.11 1012.31 1012.59 1012.83 1013.11 1013.43 1013.83 1014.31 1014.83 1015.23 1015.51 1015.43 1015.03 1014.51 1014.03 1013.95 1014.11 1014.39 1014.67 1014.87 1015.03 1015.15 1015.35 1015.55 1015.71 1015.87 1016.03 1016.19
1003.07 1003.27 1003.43 1003.59 1003.75 1003.95 1004.15 1004.47 1004.67 1004.87 1005.07 1005.31 1005.47 1005.67 1005.83 1006.03 1006.27 1006.51 1006.75 1006.91 1007.15 1007.43 1007.63 1007.83 1007.95 1008.11 1008.31 1008.55 1008.75 1009.03 1009.23 1009.51 1009.75 1010.07 1010.47 1010.83 1011.15 1011.43 1011.75 1011.95 1012.07 1012.27 1012.51 1012.79 1013.11 1013.43 1013.75 1014.15 1014.59 1015.03 1015.31 1015.35 1015.19 1014.79 1014.27 1013.79 1013.83 1014.03 1014.39 1014.67 1014.83 1014.99 1015.15 1015.31 1015.47 1015.67 1015.87 1016.03 1016.19
1003.19 1003.31 1003.51 1003.71 1003.87 1004.07 1004.31 1004.51 1004.75 1004.95 1005.15 1005.31 1005.51 1005.67 1005.87 1006.03 1006.27 1006.47 1006.71 1006.95 1007.15 1007.43 1007.67 1007.83 1007.91 1008.07 1008.27 1008.51 1008.75 1009.03 1009.27 1009.51 1009.79 1010.15 1010.55 1010.87 1011.19 1011.55 1011.83 1012.03 1012.27 1012.51 1012.79 1013.15 1013.51 1013.87 1014.15 1014.43 1014.59 1014.75 1014.91 1014.91 1014.71 1014.31 1013.95 1013.75 1013.79 1014.07 1014.39 1014.59 1014.79 1014.95 1015.07 1015.23 1015.43 1015.63 1015.83 1016.03 1016.15
1003.39 1003.51 1003.67 1003.87 1004.03 1004.23 1004.43 1004.59 1004.75 1004.95 1005.15 1005.35 1005.59 1005.75 1005.95 1006.15 1006.31 1006.51 1006.75 1006.91 1007.15 1007.39 1007.63 1007.87 1007.99 1008.11 1008.27 1008.51 1008.79 1009.07 1009.31 1009.59 1009.87 1010.23 1010.63 1010.99 1011.31 1011.59 1011.91 1012.15 1012.47 1012.75 1013.07 1013.39 1013.75 1013.99 1014.15 1014.27 1014.31 1014.35 1014.39 1014.31 1014.07 1013.83 1013.71 1013.75 1013.87 1014.11 1014.35 1014.59 1014.79 1014.95 1015.11 1015.27 1015.43 1015.59 1015.79 1015.95 1016.15
1003.51 1003.67 1003.83 1004.03 1004.23 1004.35 1004.51 1004.67 1004.87 1005.03 1005.23 1005.43 1005.67 1005.91 1006.11 1006.27 1006.43 1006.59 1006.75 1006.91 1007.15 1007.43 1007.67 1007.87 1008.03 1008.19 1008.43 1008.63 1008.91 1009.15 1009.43 1009.63 1009.95 1010.31 1010.67 1011.03 1011.31 1011.59 1011.91 1012.27 1012.59 1012.87 1013.19 1013.43 1013.63 1013.75 1013.83 1013.87 1013.91 1013.99 1013.95 1013.79 1013.63 1013.55 1013.59 1013.75 1013.99 1014.23 1014.47 1014.63 1014.83 1015.03 1015.23 1015.35 1015.47 1015.63 1015.79 1015.91 1016.03
1003.59 1003.75 1003.91 1004.15 1004.31 1004.47 1004.59 1004.79 1005.03 1005.19 1005.39 1005.59 1005.83 1006.07 1006.27 1006.39 1006.55 1006.71 1006.87 1007.03 1007.19 1007.43 1007.67 1007.91 1008.11 1008.31 1008.55 1008.83 1009.07 1009.31 1009.59 1009.83 1010.11 1010.43 1010.75 1011.03 1011.31 1011.59 1011.91 1012.23 1012.47 1012.75 1012.95 1013.11 1013.19 1013.35 1013.43 1013.51 1013.59 1013.59 1013.59 1013.51 1013.43 1013.43 1013.59 1013.83 1014.11 1014.35 1014.55 1014.71 1014.87 1015.11 1015.31 1015.43 1015.55 1015.63 1015.75 1015.83 1015.91
1003.71 1003.87 1004.03 1004.23 1004.43 1004.59 1004.75 1004.87 1005.15 1005.31 1005.47 1005.67 1005.91 1006.15 1006.31 1006.47 1006.63 1006.79 1006.99 1007.11 1007.27 1007.47 1007.75 1008.03 1008.19 1008.43 1008.63 1008.95 1009.23 1009.47 1009.75 1009.99 1010.27 1010.51 1010.75 1011.03 1011.31 1011.59 1011.83 1012.03 1012.19 1012.39 1012.55 1012.67 1012.83 1012.91 1013.03 1013.11 1013.23 1013.31 1013.31 1013.31 1013.31 1013.43 1013.63 1013.99 1014.27 1014.47 1014.63 1014.79 1014.95 1015.15 1015.31 1015.43 1015.47 1015.51 1015.55 1015.63 1015.75
1003.79 1003.99 1004.15 1004.35 1004.51 1004.67 1004.83 1005.03 1005.19 1005.39 1005.59 1005.79 1005.99 1006.15 1006.35 1006.55 1006.75 1006.91 1007.03 1007.23 1007.35 1007.59 1007.87 1008.15 1008.35 1008.59 1008.79 1009.07 1009.31 1009.55 1009.79 1010.07 1010.35 1010.59 1010.79 1011.03 1011.39 1011.63 1011.75 1011.87 1011.95 1012.07 1012.23 1012.43 1012.55 1012.63 1012.71 1012.83 1012.95 1013.07 1013.15 1013.23 1013.31 1013.47 1013.75 1014.11 1014.43 1014.59 1014.75 1014.87 1014.99 1015.15 1015.23 1015.27 1015.31 1015.31 1015.35 1015.47 1015.59
1003.87 1004.07 1004.27 1004.43 1004.59 1004.75 1004.91 1005.11 1005.31 1005.47 1005.67 1005.87 1006.03 1006.23 1006.47 1006.67 1006.87 1007.03 1007.15 1007.31 1007.47 1007.71 1007.95 1008.27 1008.55 1008.75 1008.99 1009.15 1009.35 1009.51 1009.75 1010.11 1010.39 1010.59 1010.83 1011.15 1011.51 1011.71 1011.75 1011.75 1011.83 1011.95 1012.07 1012.23 1012.31 1012.39 1012.47 1012.59 1012.75 1012.87 1013.03 1013.15 1013.35 1013.59 1013.91 1014.23 1014.47 1014.59 1014.71 1014.79 1014.87 1014.99 1014.99 1015.03 1015.07 1015.15 1015.31 1015.43 1015.47
1003.99 1004.15 1004.31 1004.47 1004.63 1004.83 1004.99 1005.15 1005.39 1005.59 1005.79 1005.95 1006.15 1006.31 1006.51 1006.75 1006.95 1007.11 1007.27 1007.43 1007.59 1007.83 1008.07 1008.35 1008.67 1008.91 1009.15 1009.31 1009.43 1009.59 1009.83 1010.11 1010.39 1010.59 1010.87 1011.31 1011.59 1011.67 1011.59 1011.63 1011.75 1011.83 1011.91 1012.03 1012.11 1012.15 1012.27 1012.47 1012.63 1012.75 1012.91 1013.15 1013.43 1013.75 1014.07 1014.31 1014.47 1014.51 1014.55 1014.59 1014.67 1014.71 1014.75 1014.79 1014.91 1015.03 1015.19 1015.31 1015.35
1004.03 1004.19 1004.39 1004.55 1004.71 1004.87 1005.03 1005.23 1005.43 1005.67 1005.87 1006.03 1006.19 1006.39 1006.59 1006.79 1007.03 1007.15 1007.35 1007.55 1007.75 1007.95 1008.19 1008.47 1008.75 1009.03 1009.27 1009.47 1009.63 1009.83 1010.03 1010.27 1010.47 1010.71 1011.03 1011.35 1011.51 1011.47 1011.43 1011.47 1011.55 1011.63 1011.75 1011.83 1011.91 1012.03 1012.19 1012.47 1012.63 1012.79 1012.99 1013.31 1013.63 1013.91 1014.15 1014.31 1014.35 1014.35 1014.39 1014.39 1014.43 1014.47 1014.59 1014.67 1014.83 1014.95 1015.07 1015.15 1015.19
1004.15 1004.31 1004.47 1004.59 1004.75 1004.95 1005.15 1005.31 1005.51 1005.75 1005.91 1006.11 1006.31 1006.47 1006.67 1006.87 1007.11 1007.31 1007.43 1007.59 1007.83 1008.03 1008.31 1008.55 1008.83 1009.11 1009.43 1009.67 1009.87 1010.07 1010.31 1010.47 1010.59 1010.79 1011.03 1011.15 1011.23 1011.23 1011.27 1011.31 1011.39 1011.47 1011.59 1011.67 1011.83 1012.07 1012.35 1012.59 1012.71 1012.87 1013.11 1013.47 1013.75 1013.99 1014.11 1014.15 1014.19 1014.23 1014.23 1014.27 1014.31 1014.43 1014.47 1014.59 1014.75 1014.87 1014.95 1015.03 1015.07
1004.19 1004.35 1004.47 1004.67 1004.79 1004.99 1005.15 1005.35 1005.55 1005.75 1005.95 1006.15 1006.35 1006.55 1006.75 1006.91 1007.15 1007.31 1007.55 1007.75 1007.91 1008.15 1008.39 1008.71 1008.95 1009.23 1009.51 1009.79 1010.07 1010.31 1010.47 1010.59 1010.67 1010.75 1010.79 1010.87 1010.91 1010.99 1011.07 1011.15 1011.31 1011.39 1011.55 1011.75 1011.99 1012.31 1012.59 1012.67 1012.79 1012.95 1013.23 1013.59 1013.75 1013.83 1013.87 1013.95 1014.03 1014.11 1014.15 1014.23 1014.31 1014.39 1014.47 1014.55 1014.59 1014.71 1014.83 1014.91 1015.03
1004.27 1004.39 1004.55 1004.71 1004.87 1005.03 1005.23 1005.39 1005.59 1005.79 1005.99 1006.15 1006.39 1006.59 1006.79 1006.99 1007.15 1007.39 1007.59 1007.87 1008.03 1008.23 1008.47 1008.79 1009.11 1009.39 1009.63 1009.87 1010.15 1010.39 1010.55 1010.55 1010.47 1010.47 1010.47 1010.59 1010.67 1010.83 1010.99 1011.15 1011.31 1011.43 1011.67 1011.95 1012.23 1012.47 1012.59 1012.71 1012.87 1013.07 1013.31 1013.47 1013.59 1013.63 1013.75 1013.87 1013.99 1014.07 1014.15 1014.27 1014.31 1014.35 1014.43 1014.47 1014.55 1014.63 1014.75 1014.87 1015.03
1004.31 1004.47 1004.63 1004.75 1004.91 1005.11 1005.31 1005.43 1005.63 1005.83 1006.03 1006.23 1006.43 1006.63 1006.87 1007.07 1007.27 1007.47 1007.71 1007.99 1008.19 1008.39 1008.59 1008.87 1009.19 1009.47 1009.75 1009.99 1010.15 1010.31 1010.47 1010.39 1010.23 1010.19 1010.27 1010.43 1010.59 1010.79 1010.99 1011.19 1011.43 1011.63 1011.87 1012.11 1012.27 1012.35 1012.47 1012.63 1012.79 1012.95 1013.11 1013.23 1013.35 1013.51 1013.71 1013.83 1013.95 1014.03 1014.11 1014.19 1014.23 1014.31 1014.35 1014.47 1014.59 1014.71 1014.87 1015.03 1015.27
1004.39 1004.59 1004.75 1004.87 1004.99 1005.15 1005.35 1005.51 1005.71 1005.87 1006.07 1006.31 1006.51 1006.71 1006.91 1007.15 1007.35 1007.59 1007.79 1008.03 1008.31 1008.55 1008.75 1009.03 1009.27 1009.51 1009.75 1009.91 1010.03 1010.23 1010.31 1010.19 1010.07 1010.11 1010.27 1010.47 1010.63 1010.83 1011.03 1011.23 1011.51 1011.75 1011.87 1011.99 1012.03 1012.15 1012.27 1012.43 1012.55 1012.67 1012.87 1013.07 1013.27 1013.43 1013.63 1013.79 1013.87 1013.95 1014.03 1014.07 1014.15 1014.27 1014.39 1014.55 1014.75 1014.91 1015.15 1015.43 1015.67
1004.43 1004.59 1004.79 1004.95 1005.07 1005.27 1005.43 1005.59 1005.75 1005.95 1006.15 1006.35 1006.59 1006.75 1006.99 1007.19 1007.43 1007.63 1007.87 1008.15 1008.39 1008.63 1008.87 1009.15 1009.31 1009.51 1009.59 1009.67 1009.75 1009.95 1010.07 1010.03 1010.07 1010.15 1010.31 1010.47 1010.67 1010.83 1011.03 1011.27 1011.47 1011.63 1011.71 1011.75 1011.75 1011.83 1011.99 1012.19 1012.31 1012.51 1012.75 1013.03 1013.19 1013.39 1013.51 1013.63 1013.75 1013.87 1013.95 1014.07 1014.19 1014.35 1014.55 1014.75 1015.03 1015.31 1015.59 1015.87 1016.15
1004.47 1004.63 1004.83 1005.03 1005.15 1005.35 1005.55 1005.75 1005.87 1006.07 1006.27 1006.47 1006.67 1006.87 1007.03 1007.27 1007.47 1007.71 1007.99 1008.23 1008.47 1008.75 1008.99 1009.19 1009.35 1009.47 1009.43 1009.35 1009.43 1009.59 1009.79 1009.95 1010.07 1010.19 1010.31 1010.43 1010.59 1010.75 1010.99 1011.19 1011.35 1011.43 1011.43 1011.43 1011.43 1011.59 1011.83 1012.11 1012.31 1012.47 1012.71 1012.95 1013.11 1013.27 1013.39 1013.47 1013.63 1013.79 1013.95 1014.15 1014.43 1014.67 1014.91 1015.15 1015.43 1015.75 1016.11 1016.39 1016.59
1004.47 1004.67 1004.87 1005.03 1005.23 1005.43 1005.59 1005.83 1005.99 1006.15 1006.35 1006.55 1006.75 1006.87 1007.11 1007.31 1007.59 1007.79 1008.03 1008.31 1008.59 1008.79 1009.03 1009.15 1009.31 1009.31 1009.23 1009.15 1009.27 1009.43 1009.67 1009.87 1010.03 1010.15 1010.27 1010.35 1010.51 1010.71 1010.87 1011.03 1011.11 1011.15 1011.19 1011.23 1011.43 1011.63 1011.87 1012.11 1012.31 1012.47 1012.63 1012.79 1012.95 1013.11 1013.27 1013.43 1013.63 1013.83 1014.07 1014.31 1014.63 1015.03 1015.35 1015.67 1015.91 1016.23 1016.55 1016.75 1016.87
1004.51 1004.75 1004.87 1005.07 1005.31 1005.47 1005.67 1005.87 1006.03 1006.23 1006.43 1006.59 1006.75 1006.95 1007.15 1007.39 1007.59 1007.87 1008.15 1008.35 1008.59 1008.79 1008.87 1008.99 1009.07 1009.07 1009.03 1009.11 1009.31 1009.51 1009.75 1009.95 1010.15 1010.31 1010.43 1010.51 1010.51 1010.59 1010.75 1010.87 1010.95 1011.03 1011.11 1011.31 1011.55 1011.75 1011.91 1012.07 1012.27 1012.43 1012.59 1012.75 1012.95 1013.15 1013.43 1013.67 1013.87 1014.11 1014.31 1014.55 1014.87 1015.31 1015.71 1016.07 1016.39 1016.63 1016.87 1017.03 1017.15
1004.51 1004.75 1004.91 1005.11 1005.31 1005.55 1005.75 1005.91 1006.11 1006.31 1006.47 1006.63 1006.83 1007.03 1007.23 1007.43 1007.63 1007.87 1008.15 1008.31 1008.47 1008.59 1008.71 1008.79 1008.91 1008.99 1009.03 1009.23 1009.43 1009.67 1009.87 1010.03 1010.19 1010.31 1010.47 1010.55 1010.59 1010.67 1010.75 1010.87 1011.03 1011.15 1011.31 1011.51 1011.75 1011.91 1012.07 1012.19 1012.35 1012.51 1012.63 1012.75 1013.03 1013.31 1013.63 1013.95 1014.23 1014.39 1014.55 1014.75 1015.11 1015.47 1015.87 1016.31 1016.71 1016.99 1017.15 1017.31 1017.47
1004.55 1004.75 1004.99 1005.15 1005.39 1005.55 1005.75 1005.99 1006.19 1006.35 1006.55 1006.75 1006.91 1007.11 1007.27 1007.43 1007.55 1007.75 1007.99 1008.15 1008.19 1008.31 1008.47 1008.63 1008.79 1008.95 1009.11 1009.31 1009.51 1009.67 1009.83 1009.95 1010.11 1010.19 1010.31 1010.39 1010.51 1010.63 1010.75 1010.87 1011.03 1011.23 1011.47 1011.75 1011.99 1012.11 1012.19 1012.31 1012.47 1012.67 1012.83 1012.95 1013.15 1013.47 1013.87 1014.31 1014.59 1014.75 1014.95 1015.19 1015.51 1015.83 1016.19 1016.59 1016.95 1017.27 1017.51 1017.71 1017.75
1004.59 1004.79 1004.99 1005.19 1005.39 1005.59 1005.83 1006.03 1006.23 1006.43 1006.63 1006.83 1006.99 1007.15 1007.23 1007.31 1007.31 1007.43 1007.63 1007.75 1007.91 1008.11 1008.31 1008.47 1008.63 1008.83 1009.03 1009.23 1009.39 1009.51 1009.63 1009.83 1009.99 1010.11 1010.23 1010.35 1010.47 1010.63 1010.75 1010.91 1011.11 1011.51 1011.99 1012.23 1012.23 1012.19 1012.23 1012.31 1012.47 1012.75 1012.95 1013.15 1013.43 1013.87 1014.31 1014.67 1014.99 1015.23 1015.51 1015.79 1016.11 1016.35 1016.67 1016.99 1017.31 1017.63 1017.83 1017.95 1018.03
1004.59 1004.79 1005.03 1005.23 1005.43 1005.63 1005.83 1006.03 1006.23 1006.43 1006.63 1006.87 1006.99 1007.15 1007.15 1007.11 1007.15 1007.27 1007.43 1007.59 1007.75 1007.95 1008.11 1008.31 1008.47 1008.71 1008.95 1009.11 1009.27 1009.43 1009.59 1009.75 1009.91 1010.07 1010.23 1010.43 1010.55 1010.71 1010.95 1011.31 1011.87 1012.15 1012.23 1012.31 1012.27 1012.23 1012.23 1012.31 1012.47 1012.67 1012.91 1013.27 1013.67 1014.11 1014.55 1014.99 1015.39 1015.75 1016.07 1016.43 1016.75 1016.95 1017.15 1017.39 1017.67 1017.87 1018.03 1018.19 1018.27
1004.63 1004.83 1005.03 1005.23 1005.43 1005.63 1005.83 1006.03 1006.19 1006.47 1006.67 1006.87 1006.99 1007.11 1007.11 1007.03 1007.07 1007.19 1007.35 1007.55 1007.63 1007.75 1007.91 1008.15 1008.39 1008.71 1008.95 1009.15 1009.27 1009.43 1009.63 1009.79 1009.87 1010.03 1010.27 1010.55 1010.75 1011.23 1011.79 1012.23 1012.43 1012.47 1012.47 1012.35 1012.23 1012.15 1012.27 1012.47 1012.67 1012.91 1013.19 1013.51 1013.95 1014.47 1015.03 1015.51 1015.91 1016.31 1016.67 1017.03 1017.31 1017.51 1017.67 1017.87 1018.03 1018.19 1018.31 1018.43 1018.51
1004.67 1004.87 1005.03 1005.23 1005.43 1005.63 1005.83 1006.03 1006.23 1006.47 1006.67 1006.87 1006.99 1007.03 1007.03 1007.03 1007.11 1007.15 1007.31 1007.43 1007.59 1007.75 1007.95 1008.15 1008.47 1008.75 1008.99 1009.15 1009.35 1009.55 1009.75 1009.87 1010.03 1010.15 1010.43 1010.83 1011.39 1011.99 1012.43 1012.67 1012.87 1012.99 1012.87 1012.59 1012.43 1012.43 1012.59 1012.87 1013.11 1013.35 1013.59 1013.83 1014.31 1014.87 1015.43 1015.99 1016.39 1016.79 1017.19 1017.59 1017.79 1017.95 1018.11 1018.31 1018.47 1018.59 1018.63 1018.71 1018.79
1004.67 1004.87 1005.07 1005.31 1005.47 1005.67 1005.87 1006.03 1006.27 1006.47 1006.71 1006.87 1006.95 1006.99 1007.03 1007.07 1007.15 1007.23 1007.31 1007.47 1007.67 1007.87 1008.07 1008.27 1008.51 1008.75 1008.91 1009.07 1009.43 1009.79 1010.07 1010.31 1010.51 1010.71 1010.95 1011.31 1011.87 1012.39 1012.79 1013.15 1013.51 1013.59 1013.39 1013.15 1012.95 1012.95 1013.07 1013.31 1013.55 1013.75 1013.99 1014.27 1014.79 1015.39 1015.95 1016.39 1016.87 1017.31 1017.71 1017.99 1018.19 1018.39 1018.55 1018.71 1018.87 1018.99 1019.03 1019.07 1019.15
1004.63 1004.83 1005.03 1005.27 1005.43 1005.63 1005.87 1006.11 1006.31 1006.51 1006.71 1006.79 1006.87 1006.87 1006.95 1007.03 1007.15 1007.31 1007.51 1007.75 1007.95 1008.15 1008.47 1008.87 1009.19 1009.55 1009.83 1010.03 1010.27 1010.59 1010.87 1011.15 1011.31 1011.43 1011.51 1011.75 1012.15 1012.63 1013.19 1013.75 1013.99 1014.07 1013.99 1013.75 1013.59 1013.51 1013.59 1013.79 1013.99 1014.19 1014.47 1014.79 1015.31 1015.87 1016.43 1016.83 1017.27 1017.75 1018.15 1018.47 1018.71 1018.87 1019.03 1019.15 1019.27 1019.39 1019.47 1019.55 1019.59
1004.51 1004.75 1004.95 1005.15 1005.39 1005.59 1005.83 1006.03 1006.27 1006.47 1006.67 1006.79 1006.83 1006.87 1006.95 1007.07 1007.31 1007.59 1007.87 1008.15 1008.47 1008.75 1009.11 1009.55 1009.91 1010.27 1010.51 1010.71 1010.87 1011.11 1011.35 1011.59 1011.71 1011.79 1011.91 1012.07 1012.47 1013.03 1013.59 1014.03 1014.39 1014.59 1014.51 1014.27 1014.11 1014.03 1014.11 1014.23 1014.39 1014.59 1014.87 1015.23 1015.79 1016.35 1016.87 1017.23 1017.67 1018.15 1018.55 1018.87 1019.15 1019.35 1019.51 1019.59 1019.71 1019.83 1019.91 1019.99 1020.03
1004.35 1004.59 1004.83 1005.03 1005.23 1005.47 1005.71 1005.95 1006.15 1006.43 1006.59 1006.75 1006.83 1006.87 1006.99 1007.23 1007.55 1007.95 1008.31 1008.59 1008.83 1009.15 1009.59 1009.99 1010.31 1010.59 1010.83 1011.07 1011.27 1011.55 1011.83 1011.99 1012.15 1012.31 1012.47 1012.67 1012.95 1013.35 1013.87 1014.39 1014.79 1014.95 1014.87 1014.71 1014.59 1014.51 1014.59 1014.67 1014.83 1014.95 1015.19 1015.63 1016.27 1016.83 1017.27 1017.63 1018.11 1018.55 1018.87 1019.15 1019.47 1019.75 1019.91 1020.03 1020.19 1020.31 1020.43 1020.47 1020.47
1004.19 1004.47 1004.67 1004.87 1005.11 1005.35 1005.59 1005.79 1006.03 1006.31 1006.55 1006.75 1006.87 1006.95 1007.15 1007.43 1007.87 1008.31 1008.59 1008.79 1009.07 1009.43 1009.91 1010.31 1010.55 1010.87 1011.31 1011.67 1011.87 1012.07 1012.23 1012.35 1012.55 1012.75 1012.99 1013.15 1013.35 1013.71 1014.19 1014.75 1015.07 1015.23 1015.23 1015.11 1015.03 1014.99 1015.03 1015.11 1015.19 1015.27 1015.47 1015.91 1016.59 1017.15 1017.59 1018.03 1018.51 1018.87 1019.15 1019.43 1019.75 1020.03 1020.23 1020.43 1020.59 1020.71 1020.79 1020.87 1020.87
1004.03 1004.27 1004.51 1004.75 1005.03 1005.23 1005.43 1005.71 1005.95 1006.23 1006.47 1006.71 1006.83 1007.03 1007.39 1007.83 1008.27 1008.55 1008.75 1009.03 1009.35 1009.87 1010.35 1010.75 1011.15 1011.59 1011.91 1012.19 1012.39 1012.59 1012.71 1012.79 1012.95 1013.19 1013.43 1013.59 1013.75 1014.11 1014.55 1014.99 1015.31 1015.55 1015.59 1015.55 1015.43 1015.43 1015.43 1015.51 1015.59 1015.59 1015.75 1016.19 1016.87 1017.43 1017.87 1018.31 1018.75 1019.15 1019.43 1019.71 1020.03 1020.31 1020.51 1020.67 1020.83 1020.95 1021.07 1021.15 1021.23
1003.87 1004.15 1004.39 1004.67 1004.91 1005.15 1005.43 1005.71 1005.95 1006.19 1006.47 1006.71 1006.95 1007.31 1007.75 1008.15 1008.55 1008.87 1009.07 1009.31 1009.75 1010.31 1010.87 1011.31 1011.75 1012.07 1012.35 1012.67 1012.87 1013.07 1013.19 1013.31 1013.43 1013.67 1013.91 1014.07 1014.31 1014.59 1014.87 1015.23 1015.59 1015.87 1015.99 1015.95 1015.87 1015.87 1015.87 1015.95 1016.03 1016.03 1016.15 1016.51 1017.03 1017.55 1018.03 1018.51 1018.95 1019.35 1019.71 1020.03 1020.35 1020.63 1020.79 1020.95 1021.07 1021.23 1021.39 1021.55 1021.63
1003.67 1003.95 1004.27 1004.55 1004.83 1005.07 1005.35 1005.67 1005.95 1006.19 1006.51 1006.87 1007.31 1007.75 1008.07 1008.43 1008.87 1009.23 1009.51 1009.75 1010.15 1010.63 1011.15 1011.59 1012.11 1012.55 1012.87 1013.15 1013.31 1013.47 1013.67 1013.87 1014.03 1014.19 1014.39 1014.63 1014.91 1015.11 1015.27 1015.47 1015.87 1016.19 1016.35 1016.35 1016.31 1016.31 1016.35 1016.43 1016.47 1016.51 1016.59 1016.83 1017.23 1017.71 1018.15 1018.63 1019.11 1019.55 1019.95 1020.31 1020.71 1021.03 1021.23 1021.35 1021.43 1021.59 1021.75 1021.91 1021.99
1003.43 1003.75 1004.15 1004.47 1004.75 1005.03 1005.31 1005.63 1005.95 1006.31 1006.75 1007.19 1007.71 1008.15 1008.55 1008.87 1009.27 1009.59 1009.87 1010.19 1010.59 1011.03 1011.47 1012.03 1012.59 1013.11 1013.35 1013.47 1013.59 1013.83 1014.07 1014.35 1014.55 1014.71 1014.87 1015.11 1015.35 1015.47 1015.59 1015.79 1016.15 1016.47 1016.67 1016.75 1016.75 1016.75 1016.79 1016.87 1016.91 1016.91 1016.99 1017.15 1017.47 1017.87 1018.31 1018.71 1019.15 1019.67 1020.15 1020.55 1020.99 1021.39 1021.67 1021.83 1021.91 1022.03 1022.19 1022.35 1022.47
1003.31 1003.63 1003.99 1004.31 1004.63 1004.95 1005.31 1005.67 1006.15 1006.63 1007.15 1007.59 1008.15 1008.59 1008.95 1009.23 1009.59 1009.87 1010.19 1010.59 1011.07 1011.51 1012.03 1012.59 1013.15 1013.47 1013.63 1013.75 1013.95 1014.15 1014.43 1014.75 1015.03 1015.23 1015.39 1015.51 1015.71 1015.87 1015.99 1016.15 1016.39 1016.67 1016.91 1017.03 1017.11 1017.15 1017.15 1017.27 1017.31 1017.35 1017.43 1017.59 1017.83 1018.15 1018.47 1018.79 1019.27 1019.83 1020.39 1020.87 1021.27 1021.63 1021.95 1022.15 1022.31 1022.47 1022.63 1022.83 1022.99
Thickness
5628 5626 5623 5621 5619 5618 5617 5616 5616 5616 5615 5613 5612 5611 5611 5611 5610 5611 5611 5611 5610 5607 5605 5606 5606 5606 5605 5605 5605 5606 5606 5605 5603 5600 5597 5596 5594 5594 5593 5593 5593 5594 5593 5593 5591 5590 5589 5586 5585 5584 5583 5583 5584 5585 5586 5588 5587 5587 5588 5588 5588 5587 5586 5585 5584 5583 5583 5582 5582
5626 5624 5622 5619 5618 5617 5616 5616 5615 5614 5612 5611 5610 5610 5610 5611 5612 5613 5612 5610 5608 5605 5604 5603 5604 5603 5602 5602 5603 5603 5603 5602 5600 5598 5595 5593 5592 5591 5590 5590 5591 5591 5592 5591 5590 5588 5586 5584 5582 5582 5581 5582 5582 5581 5582 5583 5586 5588 5589 5587 5587 5586 5585 5584 5583 5583 5582 5582 5580
5624 5622 5621 5619 5618 5616 5616 5615 5614 5612 5611 5610 5609 5609 5610 5611 5611 5610 5608 5606 5604 5602 5601 5602 5602 5601 5600 5600 5600 5600 5599 5598 5597 5595 5593 5591 5589 5588 5587 5588 5588 5589 5589 5589 5589 5586 5584 5582 5581 5581 5581 5581 5578 5578 5579 5581 5585 5587 5588 5587 5586 5585 5584 5583 5582 5582 5581 5580 5579
5622 5621 5620 5618 5617 5617 5615 5614 5612 5610 5609 5608 5607 5607 5607 5607 5606 5604 5603 5602 5601 5599 5599 5599 5599 5599 5598 5599 5598 5597 5596 5595 5594 5593 5591 5588 5586 5585 5585 5585 5586 5586 5586 5586 5585 5583 5582 5581 5581 5580 5579 5577 5575 5575 5577 5581 5585 5587 5587 5586 5585 5584 5583 5582 5582 5581 5580 5579 5578
5619 5618 5617 5617 5617 5616 5614 5612 5610 5608 5607 5606 5605 5604 5604 5603 5602 5600 5600 5598 5598 5597 5597 5597 5598 5597 5597 5597 5596 5595 5594 5593 5592 5591 5587 5585 5584 5584 5584 5583 5584 5584 5584 5583 5582 5581 5580 5579 5579 5577 5575 5573 5573 5574 5578 5582 5585 5586 5586 5585 5584 5583 5582 5581 5581 5580 5579 5578 5578
5618 5616 5615 5614 5614 5613 5611 5609 5608 5606 5604 5604 5603 5602 5602 5600 5600 5599 5598 5597 5597 5596 5595 5595 5595 5595 5595 5595 5594 5593 5591 5590 5590 5587 5585 5583 5583 5583 5583 5581 5581 5581 5581 5580 5580 5580 5579 5577 5575 5573 5572 5570 5571 5574 5578 5583 5585 5586 5585 5583 5582 5582 5581 5580 5580 5579 5578 5577 5576
5616 5614 5612 5611 5610 5609 5607 5606 5605 5604 5603 5602 5601 5601 5601 5600 5598 5597 5597 5596 5595 5594 5593 5593 5593 5593 5593 5592 5592 5591 5589 5588 5586 5584 5583 5581 5581 5580 5579 5578 5579 5579 5578 5577 5577 5575 5575 5574 5572 5571 5569 5568 5570 5574 5578 5583 5585 5585 5583 5582 5581 5581 5580 5579 5579 5578 5577 5575 5574
5613 5611 5609 5608 5606 5605 5604 5603 5602 5602 5601 5600 5600 5599 5599 5598 5597 5596 5595 5594 5593 5592 5591 5591 5591 5591 5591 5591 5589 5588 5587 5587 5586 5583 5581 5580 5579 5577 5576 5576 5576 5576 5575 5575 5574 5573 5571 5571 5570 5568 5568 5569 5571 5575 5579 5583 5584 5583 5582 5581 5580 5579 5578 5578 5577 5576 5574 5573 5572
5610 5607 5606 5604 5603 5602 5601 5601 5600 5600 5599 5599 5598 5597 5596 5596 5596 5595 5594 5593 5592 5591 5590 5590 5589 5589 5589 5588 5587 5586 5586 5585 5584 5582 5579 5577 5575 5574 5574 5574 5574 5574 5573 5572 5571 5570 5569 5569 5569 5570 5571 5572 5575 5578 5581 5583 5583 5582 5580 5579 5578 5577 5576 5576 5575 5574 5572 5572 5570
5607 5605 5603 5601 5600 5599 5599 5598 5598 5597 5598 5596 5595 5594 5594 5593 5593 5593 5592 5592 5591 5589 5588 5587 5587 5587 5587 5586 5585 5584 5584 5583 5583 5581 5578 5576 5574 5573 5573 5573 5573 5572 5571 5570 5568 5568 5568 5569 5571 5572 5574 5576 5579 5581 5582 5582 5580 5579 5578 5576 5575 5574 5572 5573 5573 5572 5571 5570 5571
5604 5603 5601 5599 5597 5596 5596 5596 5595 5595 5595 5595 5593 5592 5592 5591 5591 5591 5590 5590 5589 5588 5587 5586 5586 5585 5584 5583 5582 5582 5582 5582 5581 5580 5579 5577 5574 5572 5572 5571 5571 5570 5569 5569 5569 5570 5571 5572 5573 5574 5576 5578 5580 5581 5581 5580 5578 5576 5574 5574 5573 5571 5571 5570 5571 5571 5571 5572 5573
5602 5600 5598 5597 5595 5595 5594 5594 5594 5594 5593 5593 5591 5590 5590 5590 5589 5589 5588 5588 5588 5587 5586 5584 5584 5584 5582 5580 5580 5579 5579 5579 5579 5579 5578 5577 5573 5572 5571 5571 5571 5571 5571 5571 5572 5572 5573 5574 5575 5576 5577 5579 5581 5580 5579 5577 5574 5572 5572 5572 5571 5570 5570 5571 5571 5572 5573 5574 5575
5599 5597 5596 5595 5594 5593 5593 5592 5593 5592 5592 5591 5589 5589 5588 5587 5588 5587 5586 5587 5586 5585 5584 5582 5581 5580 5580 5578 5578 5577 5577 5577 5578 5577 5576 5575 5572 5570 5571 5572 5572 5573 5572 5573 5573 5574 5575 5575 5576 5577 5577 5578 5579 5578 5576 5573 5571 5570 5570 5570 5570 5570 5571 5571 5572 5573 5574 5575 5575
5597 5596 5594 5593 5592 5592 5592 5591 5591 5590 5589 5589 5588 5587 5586 5586 5586 5585 5585 5584 5584 5583 5582 5580 5579 5578 5577 5576 5576 5576 5576 5576 5576 5576 5575 5572 5568 5568 5570 5572 5572 5572 5573 5573 5574 5574 5575 5576 5576 5577 5577 5577 5576 5575 5573 5571 5569 5569 5570 5571 5571 5571 5572 5573 5574 5575 5574 5574 5574
5595 5594 5593 5592 5592 5591 5590 5590 5589 5588 5587 5587 5587 5586 5585 5585 5584 5583 5583 5583 5582 5582 5580 5578 5577 5575 5575 5574 5575 5574 5574 5574 5574 5573 5572 5569 5566 5567 5569 5571 5572 5573 5573 5573 5574 5574 5575 5575 5575 5576 5576 5575 5574 5572 5570 5569 5569 5570 5572 5572 5573 5573 5573 5574 5575 5574 5574 5573 5573
5593 5592 5591 5591 5591 5590 5590 5588 5588 5587 5586 5586 5585 5585 5584 5583 5583 5582 5582 5582 5580 5579 5578 5577 5575 5574 5572 5572 5572 5572 5572 5572 5571 5571 5570 5567 5566 5567 5569 5571 5572 5572 5573 5573 5573 5574 5574 5574 5574 5574 5574 5573 5571 5570 5568 5568 5570 5571 5573 5573 5573 5574 5575 5575 5574 5573 5572 5572 5573
5591 5590 5590 5590 5589 5589 5588 5587 5586 5586 5585 5584 5584 5584 5583 5582 5582 5581 5581 5579 5579 5577 5576 5575 5574 5572 5571 5570 5569 5569 5569 5569 5568 5568 5568 5567 5567 5568 5569 5570 5572 5572 5573 5573 5573 5572 5571 5571 5571 5572 5572 5571 5569 5568 5569 5570 5571 5572 5573 5573 5574 5574 5574 5574 5573 5572 5571 5572 5571
5589 5589 5588 5588 5588 5587 5587 5586 5586 5585 5584 5584 5583 5582 5582 5581 5580 5580 5579 5577 5577 5576 5574 5573 5572 5570 5569 5568 5567 5567 5567 5567 5567 5567 5568 5568 5568 5569 5569 5570 5570 5571 5572 5572 5571 5569 5569 5568 5569 5570 5570 5569 5568 5569 5570 5571 5571 5571 5572 5572 5573 5573 5572 5572 5572 5571 5570 5570 5570
5589 5587 5587 5587 5587 5586 5585 5585 5584 5583 5583 5582 5581 5580 5579 5579 5578 5578 5577 5576 5575 5574 5573 5571 5569 5568 5567 5566 5565 5565 5564 5565 5567 5568 5569 5568 5568 5569 5568 5569 5569 5570 5569 5568 5567 5567 5567 5568 5569 5570 5569 5569 5569 5570 5571 5570 5570 5570 5571 5571 5571 5571 5570 5571 5570 5569 5569 5568 5567
5587 5587 5586 5586 5585 5584 5584 5584 5582 5582 5581 5580 5579 5578 5578 5577 5576 5576 5575 5574 5572 5571 5570 5569 5567 5566 5565 5564 5563 5563 5563 5565 5567 5568 5568 5567 5567 5567 5567 5567 5568 5567 5567 5566 5567 5567 5568 5569 5570 5570 5569 5569 5569 5570 5569 5569 5569 5569 5569 5569 5569 5569 5569 5568 5567 5567 5566 5565 5563
5587 5585 5585 5584 5583 5583 5582 5581 5580 5580 5579 5578 5578 5577 5576 5575 5575 5574 5573 5571 5570 5569 5568 5567 5565 5564 5563 5563 5563 5563 5564 5565 5566 5567 5566 5566 5566 5566 5566 5567 5566 5566 5565 5567 5568 5569 5570 5569 5570 5570 5569 5569 5569 5568 5567 5567 5567 5568 5568 5568 5568 5567 5566 5565 5564 5563 5561 5559 5558
5585 5584 5583 5582 5582 5581 5580 5580 5579 5578 5578 5576 5576 5576 5575 5574 5573 5572 5571 5570 5568 5567 5567 5566 5564 5563 5563 5564 5564 5563 5563 5564 5565 5564 5565 5565 5565 5566 5565 5565 5565 5565 5566 5569 5570 5569 5570 5570 5570 5570 5569 5568 5567 5567 5566 5566 5567 5567 5566 5566 5565 5564 5563 5561 5559 5558 5556 5555 5554
5585 5583 5582 5581 5580 5579 5578 5577 5577 5576 5575 5575 5574 5573 5573 5573 5572 5571 5570 5568 5567 5566 5565 5565 5563 5562 5562 5564 5564 5564 5563 5563 5562 5563 5564 5564 5564 5565 5565 5565 5565 5566 5568 5569 5570 5570 5570 5569 5568 5568 5567 5567 5566 5566 5566 5566 5566 5565 5565 5563 5563 5560 5558 5556 5554 5553 5552 5550 5550
5585 5583 5581 5580 5579 5578 5576 5576 5575 5574 5574 5573 5573 5572 5571 5571 5570 5570 5568 5568 5566 5565 5564 5563 5561 5560 5561 5563 5563 5563 5562 5562 5561 5561 5562 5562 5563 5563 5564 5565 5566 5567 5568 5568 5569 5569 5568 5568 5567 5567 5566 5566 5566 5566 5565 5564 5564 5563 5562 5561 5559 5556 5553 5551 5550 5548 5547 5546 5545
5584 5582 5581 5580 5578 5576 5575 5574 5574 5572 5572 5572 5571 5571 5570 5569 5569 5568 5567 5566 5564 5563 5562 5561 5560 5561 5561 5562 5562 5561 5561 5560 5560 5560 5560 5561 5562 5563 5565 5566 5566 5567 5568 5568 5567 5567 5566 5566 5566 5566 5566 5565 5566 5565 5565 5563 5561 5560 5559 5557 5555 5552 5549 5547 5545 5544 5542 5541 5540
5583 5581 5580 5579 5577 5575 5574 5572 5571 5571 5570 5570 5569 5569 5568 5568 5567 5567 5565 5564 5562 5562 5561 5561 5560 5560 5561 5560 5560 5559 5559 5559 5559 5559 5560 5561 5562 5564 5565 5566 5566 5566 5566 5565 5564 5564 5564 5564 5564 5564 5564 5564 5563 5562 5560 5558 5556 5556 5555 5554 5551 5548 5546 5544 5541 5539 5537 5536 5535
5582 5581 5579 5578 5576 5575 5573 5571 5570 5569 5568 5567 5567 5567 5567 5566 5566 5565 5563 5562 5562 5561 5561 5560 5560 5560 5560 5559 5558 5559 5558 5558 5558 5559 5560 5561 5562 5563 5565 5565 5565 5565 5564 5562 5562 5561 5562 5562 5562 5561 5561 5561 5560 5558 5556 5554 5552 5551 5550 5548 5547 5544 5542 5539 5536 5534 5532 5531 5530
5582 5580 5579 5577 5575 5574 5572 5569 5568 5567 5567 5566 5566 5565 5565 5566 5566 5565 5564 5563 5563 5563 5562 5561 5561 5560 5559 5558 5558 5558 5558 5558 5558 5559 5560 5561 5562 5563 5564 5564 5564 5561 5559 5557 5559 5560 5560 5561 5560 5559 5559 5558 5557 5554 5552 5550 5547 5546 5544 5542 5540 5538 5536 5534 5531 5529 5527 5526 5526
5581 5580 5578 5576 5575 5573 5571 5569 5568 5566 5565 5565 5564 5564 5564 5565 5566 5566 5565 5565 5564 5563 5563 5562 5561 5560 5559 5559 5558 5558 5558 5559 5559 5560 5560 5561 5561 5562 5562 5561 5557 5555 5555 5556 5558 5559 5560 5560 5560 5559 5558 5556 5554 5551 5548 5545 5542 5540 5538 5535 5533 5532 5530 5528 5526 5524 5523 5522 5522
5581 5579 5578 5576 5574 5573 5571 5570 5568 5566 5565 5564 5564 5563 5564 5565 5566 5566 5566 5565 5564 5564 5563 5563 5561 5560 5559 5559 5558 5558 5558 5559 5560 5560 5560 5560 5560 5557 5554 5552 5551 5551 5553 5555 5557 5558 5559 5558 5558 5556 5555 5553 5551 5547 5543 5539 5537 5534 5531 5528 5527 5525 5524 5522 5521 5520 5519 5519 5518
5580 5579 5577 5575 5574 5573 5571 5570 5568 5567 5565 5565 5564 5564 5565 5566 5566 5566 5566 5565 5565 5565 5564 5564 5562 5561 5560 5560 5559 5559 5559 5559 5559 5560 5559 5557 5554 5550 5548 5547 5547 5547 5549 5552 5554 5555 5555 5554 5553 5552 5550 5549 5546 5542 5538 5534 5530 5528 5525 5523 5521 5519 5519 5517 5517 5516 5516 5515 5515
5580 5579 5577 5576 5574 5573 5571 5570 5569 5568 5567 5565 5566 5566 5566 5567 5567 5567 5567 5566 5566 5566 5565 5564 5564 5563 5562 5561 5560 5558 5557 5556 5555 5555 5554 5553 5550 5547 5545 5543 5541 5542 5544 5547 5550 5551 5550 5549 5548 5547 5546 5544 5540 5536 5532 5529 5525 5522 5519 5517 5516 5515 5514 5513 5512 5512 5511 5511 5510
5580 5579 5577 5576 5574 5574 5572 5571 5570 5569 5568 5567 5567 5567 5568 5569 5569 5568 5567 5566 5566 5565 5563 5561 5559 5557 5556 5555 5554 5552 5550 5549 5549 5549 5550 5550 5548 5544 5541 5537 5537 5537 5539 5542 5544 5545 5545 5545 5544 5542 5541 5538 5535 5531 5527 5524 5520 5517 5515 5513 5511 5510 5509 5508 5507 5507 5506 5506 5505
5581 5580 5578 5577 5576 5575 5574 5573 5571 5570 5569 5568 5569 5569 5570 5570 5569 5567 5566 5564 5563 5561 5558 5556 5553 5552 5550 5549 5548 5548 5546 5545 5546 5546 5546 5546 5544 5541 5538 5535 5533 5533 5534 5537 5539 5540 5541 5539 5539 5538 5536 5534 5530 5525 5523 5519 5516 5514 5510 5508 5506 5504 5504 5503 5502 5501 5501 5500 5500
5582 5581 5580 5579 5578 5576 5575 5574 5573 5572 5571 5570 5570 5570 5571 5570 5568 5565 5563 5561 5560 5557 5555 5552 5550 5548 5547 5546 5545 5543 5542 5542 5542 5542 5542 5542 5540 5538 5536 5532 5529 5529 5530 5533 5534 5535 5535 5534 5534 5534 5532 5529 5525 5521 5518 5515 5512 5508 5506 5504 5502 5500 5499 5498 5497 5496 5496 5495 5496
5584 5583 5582 5581 5579 5579 5577 5576 5575 5574 5572 5571 5571 5571 5570 5569 5566 5563 5560 5559 5557 5555 5551 5549 5548 5546 5543 5541 5539 5539 5539 5539 5539 5538 5538 5537 5537 5535 5532 5528 5526 5525 5526 5527 5529 5530 5530 5530 5530 5530 5529 5526 5521 5517 5513 5511 5508 5504 5502 5500 5498 5496 5495 5494 5493 5492 5491 5491 5490
5586 5585 5583 5582 5581 5580 5579 5577 5576 5575 5573 5572 5572 5571 5569 5566 5563 5560 5559 5557 5555 5552 5548 5545 5543 5540 5538 5537 5536 5536 5536 5536 5535 5534 5534 5533 5533 5531 5528 5525 5523 5522 5522 5523 5524 5526 5526 5526 5526 5527 5525 5522 5517 5514 5510 5507 5503 5501 5499 5497 5494 5492 5491 5490 5489 5488 5486 5485 5484
5588 5587 5585 5584 5583 5582 5580 5579 5577 5575 5574 5573 5572 5570 5566 5564 5561 5558 5556 5554 5552 5548 5544 5541 5539 5536 5534 5533 5532 5532 5531 5532 5531 5530 5529 5528 5528 5526 5524 5522 5519 5518 5518 5519 5520 5521 5521 5522 5521 5521 5521 5518 5514 5510 5507 5503 5500 5497 5494 5492 5490 5488 5487 5486 5484 5483 5481 5480 5478
5590 5588 5587 5586 5584 5583 5581 5580 5578 5576 5574 5572 5569 5566 5563 5561 5558 5555 5553 5551 5548 5545 5541 5538 5535 5532 5530 5529 5529 5528 5527 5526 5525 5525 5524 5523 5521 5520 5520 5518 5516 5514 5514 5514 5515 5515 5516 5516 5516 5516 5515 5513 5511 5507 5504 5500 5497 5494 5491 5488 5485 5483 5482 5481 5480 5478 5476 5474 5473
5591 5590 5589 5587 5586 5584 5582 5580 5578 5576 5573 5569 5566 5562 5560 5557 5554 5551 5549 5548 5544 5542 5538 5535 5531 5528 5526 5526 5525 5525 5523 5522 5521 5520 5519 5518 5516 5516 5516 5515 5513 5511 5510 5510 5510 5511 5511 5511 5511 5511 5511 5509 5507 5504 5502 5498 5494 5491 5487 5484 5481 5479 5477 5475 5474 5473 5471 5469 5467
5594 5592 5590 5589 5587 5585 5583 5580 5577 5573 5569 5566 5562 5558 5556 5553 5551 5549 5546 5543 5540 5537 5533 5529 5526 5524 5523 5523 5522 5521 5519 5518 5515 5514 5514 5513 5513 5512 5511 5511 5510 5508 5507 5506 5506 5506 5506 5506 5506 5506 5506 5505 5502 5500 5498 5495 5492 5488 5484 5480 5477 5474 5472 5469 5468 5467 5464 5463 5461